www.pogodaiklimat.ru

Погода и климат >> Архив погоды >> Боливия >> San Ramon


ПОГОДА в San Ramon

  • Прогноз погоды в San Ramon
  • Монитор погоды в San Ramon
  • Климат города

АРХИВ ПОГОДЫ в San Ramon

Время (UTC), дата Ветер
(напр.,м/с)
 
Видим.   Явления Облачность Т
(С)
Тd
(С)
f
(%)
Тe
(С)
Тes
(С)
Комфортность P
(гПа)
Po
(гПа)
Тmin
(С)
Tmax
(С)
R
(мм)
R24
(мм)
S
(см)
12 13.02 ЮВ 3 8000 м осадки на расстоянии 10/5 300 м
[Sc As op]
+23.2 +21.9 92 +31 +32 очень
душно
1010.8 994.7 +22.3 28
21 13.02 ЮВ 2 15 км 10/8 450 м
[Sc As op]
+24.5 +23.5 94 +33 +33 очень
душно
1008.6 992.5 +28.2
12 14.02 ЮВ 4 15 км 10/5 240 м
[Sc As op]
+23.7 +23.1 96 +31 +32 очень
душно
1012.6 996.4 +21.9 12
15 14.02 ЮВ 3 8000 м осадки на расстоянии 10/5 240 м
[Sc As op]
+26.0 +24.1 89 +36 +38 очень
душно
1013.4 997.4
18 14.02 ЮВ 3 8000 м осадки на расстоянии 9/6 450 м
[Sc Ac und]
+26.0 +24.2 90 +36 +39 очень
душно
1012.3 996.3
21 14.02 ЮВ 3 15 км 8/4 500 м
[Cb cap Ac trans]
+29.0 +25.1 80 +42 +43 опасность
перегрева
1009.7 993.8 +29.5
12 15.02 ЮВ 2 15 км 5/1 300 м
[Sc Ac trans]
+26.0 +24.7 93 +37 +40 очень
душно
1012.0 996.0 +23.1
15 15.02 В 3 15 км 4/4 450 м
[Sc]
+30.0 +23.7 69 +41 +52 опасность
перегрева
1013.1 997.2
18 15.02 ЮВ 4 15 км 6/6 500 м
[Cu med, cong]
+32.0 +24.1 63 +44 +49 опасность
перегрева
1011.9 996.0
21 15.02 ЮВ 3 15 км 5/5 500 м
[Cb cap]
+32.9 +23.7 59 +44 +46 опасность
перегрева
1005.5 991.8 +33.5
12 16.02 С 2 7000 м осадки на расстоянии {гроза, дождь} 10/5 240 м
[Cb cap As op]
+22.5 +22.2 98 +30 +31 очень
душно
1013.2 997.0 +21.1 17
15 16.02 С 2 15 км 9/3 450 м
[Sc Ac trans]
+25.6 +23.4 88 +35 +41 очень
душно
1013.7 997.8
18 16.02 С 3 15 км 9/6 450 м
[Cb cap Ac trans]
+28.0 +24.0 79 +39 +42 очень
душно
1012.8 996.8
21 16.02 С 2 15 км 9/6 450 м
[Cb cap Ac und]
+28.0 +23.3 76 +38 +39 очень
душно
1009.6 993.7 +29.5
12 17.02 штиль 0 15 км 9/3 360 м
[Sc Ac trans Ci]
+23.6 +22.9 96 +31 +34 очень
душно
1011.4 995.3 +22.5 20
15 17.02 В 3 15 км 9/3 450 м
[Sc Ac trans]
+27.6 +24.1 81 +38 +44 очень
душно
1012.7 996.7
18 17.02 С 2 15 км 9/5 500 м
[Cb cap Ac trans]
+30.7 +23.0 64 +41 +46 опасность
перегрева
1010.3 994.5
21 17.02 Ю 2 15 км 9/4 500 м
[Cb cap Ci]
+29.5 +24.9 76 +42 +44 опасность
перегрева
1007.8 992.0 +32.1
12 18.02 СЗ 4 15 км 9/5 450 м
[Cb cap Ac trans]
+25.0 +23.6 92 +34 +35 очень
душно
1009.3 993.2 +23.1
15 18.02 СЗ 2 8000 м осадки на расстоянии {дождь} 10/5 450 м
[Cb cap As op]
+23.5 +22.8 96 +31 +33 очень
душно
1010.5 994.5
18 18.02 СЗ 3 8000 м осадки на расстоянии 9/5 450 м
[Cb cap Ac trans]
+27.5 +24.8 85 +39 +43 очень
душно
1007.3 991.5 3
21 18.02 СЗ 3 15 км 9/3 500 м
[Cu med, cong Ci]
+30.0 +25.4 76 +44 +45 опасность
перегрева
1004.2 988.5 +30.9
12 19.02 штиль 0 15 км 9/1 450 м
[Sc Ac trans Ci]
+24.5 +23.4 94 +33 +36 очень
душно
1008.7 992.8 +23.5 3
15 19.02 СЗ 5 15 км 8/3 450 м
[Sc Ci]
+28.5 +23.3 73 +38 +44 очень
душно
1009.1 993.2
18 19.02 СЗ 6 8000 м осадки на расстоянии 9/5 500 м
[Cb cap Ci]
+31.0 +23.3 64 +42 +45 опасность
перегрева
1006.8 991.0
21 19.02 СЗ 4 8000 м осадки на расстоянии 9/5 500 м
[Cb cap Ci]
+29.5 +23.9 72 +41 +42 опасность
перегрева
1004.7 989.0 +31.7

 

Местоположение метеостанции San Ramon (Боливия): широта -13.30 долгота -64.70 высота над уровнем моря 140 м.

В архиве по умолчанию представлена погода в San Ramon за последнюю неделю. Архивные данные за месяц целиком и за предыдущие месяцы, начиная с января 2011 года, Вы можете получить, выбрав интересующий диапазон дат из раскрывающегося списка и нажав кнопку "Ввод!".

Внимание! Время в таблицах - всемирное. Для получения местного времени необходимо прибавить поправку, которая в San Ramon равна -4 ч.

Смотрите также архив погоды в соседних городах и на ближайших метеорологических станциях:

Погода в San Joaquin (Боливия) (29 км)
Погода в Magdalena (Боливия) (64 км)
Погода в Baures (Боливия) (93 км)
Погода в Santa Ana (Боливия) (94 км)
Погода в Trinidad (Боливия) (169 км)
Погода в San Ignacio De Moxo (Боливия) (204 км)
Погода в Santa Rosa (Боливия) (257 км)
Погода в San Borja (Боливия) (291 км)
Погода в Riberalta (Боливия) (298 км)
Погода в Reyes (Боливия) (311 км)

Пояснения к столбцам:

Ветер - указаны скорость ветра в м/с - средняя за 10 мин, порывы в срок и между сроками (в фигурных скобках) и направление, откуда дует ветер: С - северный, СВ - северо-восточный, В - восточный, ЮВ - юго-восточный, Ю - южный, ЮЗ - юго-западный, З - западный, СЗ - северо-западный.
Видимость - горизонтальная дальность видимости в метрах или километрах. При видимости от 1 до 10 км при отсутствии осадков обычно наблюдается дымка, при ухудшении видимости до 1 км и менее - туман. В сухую погоду видимость может ухудшаться дымом, пылью или мглою.
Явления - указаны атмосферные явления, наблюдавшиеся в срок или в последний час перед сроком; фигурными скобками обозначены явления, наблюдавшиеся между сроками (за 1-3 часа до срока); квадратными скобками обозначены град или гололедные отложения с указанием их диаметра в мм.
Облачность - указаны через наклонную черту общая и нижняя облачность в баллах и высота нижней границы облаков в метрах; квадратными скобками обозначены формы облаков: Ci - перистые, Cs - перисто-слоистые, Cc - перисто-кучевые, Ac - высококучевые, As - высокослоистые, Sc - слоисто-кучевые, Ns - слоисто-дождевые, Cu - кучевые, Cb - кучево-дождевые. Подробнее классификацию облаков см. в Атласе облаков (PDF).
T - Температура воздуха - температура, измеренная на высоте 2 м над землей.
Td - Температура точки росы - температура, при понижении до которой содержащийся в воздухе водяной пар достигнет насыщения.
f - Относительная влажность воздуха - влажноcть воздуха, измеренная на высоте 2 м над землей.
Te - Эффективная температура - температура, которую ощущает одетый по сезону человек в тени. Характеристика душности погоды. При расчете учитывается влияние влажности воздуха и скорости ветра на теплоощущения человека.
Tes - Эффективная температура на солнце - температура, которую ощущает человек, с поправкой на солнечный нагрев. Характеристика знойности погоды. Зависит от высоты солнца над горизонтом, облачности и скорости ветра. Ночью, в пасмурную погоду, а также при ветре 12 м/с и более поправка равна нулю.
P - Атмосферное давление - приведенное к уровню моря атмосферное давление.
Po - Атмосферное давление - измеренное на уровне метеостанции атмосферное давление.
Tmin - Минимальная температура - минимум температуры воздуха на высоте 2 м над землей.
Tmax - Максимальная температура - максимум температуры воздуха на высоте 2 м над землей.
R - Количество осадков - Количество выпавших осадков за период времени, мм. При наведении курсора мыши на число - период времени, за который выпало указанное количество осадков.
R24 - Количество осадков - Количество выпавших осадков за 24 часа, мм.
S - Снежный покров - Высота снежного покрова, см. При наведении курсора мыши на число - состояние снежного покрова и степень покрытия местности в баллах.